FLOCK 4BE 22

导读 | 星芒AI

FLOCK 4BE 22 是由 Planet Labs 公司发射的一颗地球观测卫星,属于其 Flock 4B 系列。该卫星主要用于高分辨率光学成像,支持全球范围内的土地利用监测、环境评估和灾害响应等应用。它运行在低地球轨道,具备高频次重访能力,能够提供快速更新的地表图像数据,服务于农业、城市规划和科研等多个领域。

基本信息
目录编号:
60494
目录名称:
FLOCK 4BE 22
国际标识:
2024-149AC
轨道中心:
EARTH
卫星名称:
FLOCK 4BE 22
卫星全名:
FLOCK 4BE 22
卫星状态:
在轨 (已飞行432 天)
发射日期:
2024-08-16 UTC
国别 :
美国 (US)
星等 :
--
轨道信息
数据来源 国际轨道数据
星历时间: 2025-10-22T11:43:49+0800
10小时前
查看轨道信息
半长轴: 6848.469km
偏心率: 0.0005582
轨道倾角: 97.397°
近地点辐角 56.822°
升交点赤经 12.757°
平近点角 303.356°
近地点: 466.511km
远地点: 474.157km
周期: 94.005分钟
每日圈数: 15.318369
详细信息
使用方式:
暂无
2D轨道图
3D轨道图
轨道高度分析图
轨道倾角分析图
轨道综合分析图
查看轨道综合分析图